Wind_Speed
56 53 54 55 56 54 51 50 51 52 54 54 53 54 56 57 58 62 64 63 62 59 58 59 57 56 59 63 66 63 59 60 61 61 59 57 56 56 55 55 56 58 59 58 57 58 58 59 60 62 63 63 64 65 65 64 63 62 62 61 60 58 55 51 50 50 50 50 50 51 51 51 51 51 51 50 50 50 51 51 50 50 49 49 48 49
55 54 56 55 52 50 48 47 48 50 51 51 51 52 54 55 56 59 61 61 60 57 58 60 56 55 59 62 64 63 59 59 59 57 56 54 52 51 52 54 56 58 58 57 56 56 56 56 57 58 58 58 59 60 60 60 59 58 58 58 57 55 53 50 49 49 49 49 49 50 50 50 50 50 50 50 50 50 50 49 48 47 47 47 46 47
55 56 56 51 47 47 46 46 47 48 49 48 48 49 51 53 55 57 59 59 58 55 56 57 54 54 58 60 62 61 59 58 57 56 54 50 47 48 50 54 56 57 55 54 54 53 53 53 53 53 52 53 55 56 56 56 55 54 55 55 54 52 50 48 47 47 48 48 48 49 49 48 47 47 47 48 47 47 47 47 46 45 45 45 44 44
56 57 53 47 45 46 45 45 45 46 47 46 47 47 49 51 52 55 58 57 54 52 54 55 52 54 58 58 59 59 57 55 54 53 50 46 45 48 50 53 53 52 52 51 50 50 50 49 49 49 50 50 52 53 53 52 51 51 52 52 52 51 49 48 47 47 47 47 47 48 47 46 45 44 43 43 43 44 45 44 44 43 43 43 42 42
55 54 49 46 45 45 44 44 44 44 45 45 46 46 48 50 50 55 56 53 50 50 52 52 51 53 55 55 55 54 52 51 50 48 46 45 46 48 50 51 50 49 50 49 48 48 48 47 47 47 48 48 49 49 49 48 48 49 49 50 50 49 48 48 47 46 46 46 47 47 46 46 45 44 43 43 43 43 43 43 42 42 42 42 41 40
53 50 47 46 44 43 42 43 43 43 44 44 45 46 48 49 51 55 54 49 48 48 50 50 49 51 53 53 52 50 49 48 47 45 44 46 48 48 49 50 49 49 49 48 47 48 47 46 46 46 46 46 46 46 46 46 46 47 48 49 49 49 48 47 47 46 46 46 46 46 47 47 47 47 46 45 45 44 43 42 42 41 41 40 39 38
50 47 46 45 43 41 41 42 42 42 42 43 45 46 48 50 51 53 50 47 46 46 48 49 48 50 52 52 50 47 47 46 45 44 44 47 48 49 49 49 49 49 49 48 47 47 46 45 46 45 45 44 44 44 44 44 45 46 47 48 49 49 49 48 46 46 46 46 46 46 47 48 48 47 47 46 46 44 43 42 41 41 40 39 37 36
47 44 45 43 41 40 41 41 41 41 41 44 46 46 47 49 49 49 47 45 45 44 46 47 46 48 51 50 47 44 44 44 44 43 44 46 48 49 49 49 49 49 48 48 47 46 45 44 45 44 44 43 43 43 43 43 44 45 46 47 48 49 49 47 45 44 44 45 45 45 45 45 45 46 46 46 45 45 43 42 40 39 38 37 36 35
44 43 44 41 39 40 41 41 40 39 41 46 46 44 45 46 45 45 44 44 44 43 45 46 45 47 49 47 44 43 42 43 43 43 44 46 47 49 49 48 47 46 46 46 46 45 44 43 44 43 42 41 41 42 42 43 43 44 45 46 47 47 46 46 45 44 44 44 45 45 45 44 44 44 45 45 45 44 43 41 39 37 35 35 34 33
43 43 41 38 39 41 41 40 39 39 43 46 43 41 42 43 43 44 43 44 43 42 44 44 44 46 46 44 43 42 42 42 43 43 44 45 46 47 46 45 44 44 44 44 44 44 43 43 43 42 41 41 41 42 43 43 43 44 45 45 46 45 44 45 46 46 47 47 47 47 47 47 45 45 45 45 44 43 42 40 38 36 35 35 33 32
43 41 39 39 41 41 40 38 38 40 42 42 39 39 40 41 43 43 42 43 40 40 43 43 44 45 44 43 43 42 41 40 42 42 43 44 45 45 44 44 43 42 42 43 43 43 42 42 42 42 42 42 42 43 44 44 44 44 44 45 45 44 44 45 46 47 47 47 48 48 48 48 47 46 45 44 43 41 41 40 38 37 37 36 35 33
41 39 38 40 40 39 38 38 38 39 40 39 38 38 40 40 41 41 41 40 37 38 41 42 43 44 43 43 43 41 39 37 39 41 42 43 44 44 44 43 42 41 42 42 41 42 42 42 42 42 42 43 43 45 45 45 45 44 44 43 44 44 44 45 45 46 46 46 47 47 47 47 46 46 45 45 44 42 41 41 40 39 38 37 36 35
39 37 38 39 39 38 38 38 38 37 37 37 37 38 39 39 40 40 39 38 37 39 41 41 42 43 43 43 41 39 37 36 37 39 41 42 42 43 42 41 41 41 40 40 41 42 42 43 43 42 43 44 44 45 45 45 44 43 43 43 43 43 44 45 45 46 46 47 47 47 47 46 46 46 46 47 46 44 43 42 41 39 38 38 37 36
38 37 37 38 39 39 38 38 37 36 36 36 36 37 37 37 38 39 38 37 37 40 41 41 41 42 42 41 38 37 35 35 36 37 38 38 39 40 39 39 38 38 38 39 40 41 42 43 43 42 43 43 44 44 44 44 44 43 43 42 43 43 44 45 46 47 47 47 46 46 46 45 45 46 46 47 47 46 44 42 40 39 37 36 36 35
38 37 36 38 40 39 39 38 36 35 34 34 35 35 35 36 37 38 38 38 38 40 40 39 39 40 41 38 36 35 34 34 34 34 35 36 37 37 37 38 37 37 39 38 37 39 42 43 41 41 42 42 43 44 44 44 44 43 42 42 43 43 44 45 45 46 45 45 45 44 44 44 44 45 45 46 46 45 43 41 39 37 36 35 35 35
38 37 37 39 40 39 38 36 33 33 33 33 33 34 35 36 37 37 38 38 39 39 40 38 37 38 38 34 32 32 33 32 32 32 33 34 34 34 36 38 38 39 40 38 37 38 40 41 40 40 41 42 42 43 44 44 43 43 42 42 42 42 42 43 43 43 43 43 43 43 44 44 44 44 44 44 44 42 40 38 36 35 34 34 33 33
38 37 38 38 38 38 36 32 31 32 32 31 32 34 36 36 35 35 35 36 38 39 38 36 35 36 35 30 28 28 29 29 29 29 30 31 32 33 35 37 37 38 38 38 39 40 40 41 40 39 40 41 41 42 42 42 41 41 41 40 40 40 40 40 40 41 42 42 42 42 42 42 42 42 41 41 40 39 37 35 34 33 33 32 32 31
37 37 36 36 37 36 34 31 30 31 30 30 32 33 34 33 33 33 33 34 35 36 36 34 33 34 32 29 27 26 26 26 25 24 25 27 27 28 29 32 33 34 36 38 39 38 39 41 39 38 38 39 40 40 40 40 39 39 39 39 38 37 38 39 41 42 43 43 42 41 40 39 39 39 38 38 37 36 35 34 34 33 33 33 34 34
37 38 36 35 36 34 32 31 30 29 29 30 30 30 30 31 32 33 33 33 34 34 33 33 32 31 30 29 29 28 27 25 22 19 19 20 21 22 26 30 31 32 34 37 37 36 37 38 38 38 38 39 39 39 38 37 36 36 36 36 36 36 36 36 36 38 41 42 40 39 39 39 39 38 37 36 35 34 34 34 34 34 34 35 38 38
38 38 37 36 35 34 33 32 30 29 30 30 29 28 29 31 32 33 33 34 35 34 33 33 32 30 30 31 30 28 25 22 19 16 15 18 21 24 29 33 35 34 34 34 33 32 33 34 34 36 38 38 38 37 36 34 32 31 32 32 33 33 32 29 28 31 35 37 37 39 40 41 41 41 39 38 37 37 37 38 37 36 36 38 41 41
38 39 38 36 36 36 35 33 31 31 31 30 29 29 30 31 32 33 34 34 35 35 34 33 31 31 32 32 30 28 24 20 16 16 18 21 24 25 30 34 33 31 30 28 28 29 31 32 30 32 34 34 34 34 33 31 28 26 27 27 29 30 27 28 32 35 37 39 41 42 43 43 42 41 41 40 39 39 39 40 40 39 40 41 43 43
38 39 39 36 36 36 35 32 32 32 31 30 30 30 31 31 32 33 34 34 35 35 35 34 33 33 33 33 31 31 30 27 25 26 25 24 26 28 32 33 29 28 28 28 28 30 32 34 32 29 28 27 28 29 27 25 24 23 22 25 29 29 27 31 37 39 40 41 42 41 42 42 42 40 39 38 36 36 36 37 37 38 39 40 42 43
38 40 40 37 35 35 34 33 32 32 32 31 30 30 31 31 32 33 33 34 35 36 36 36 35 34 34 33 33 34 36 37 36 35 30 28 32 36 37 33 29 31 33 34 34 33 34 35 33 30 26 23 23 22 21 20 19 20 24 30 34 32 30 32 35 36 37 36 33 33 34 36 37 37 35 35 36 37 37 37 36 36 36 36 37 40
37 40 41 38 35 34 34 33 33 32 32 31 31 30 30 31 32 32 32 33 35 36 36 36 36 35 36 36 36 38 41 42 42 39 36 34 36 39 40 37 34 33 37 39 37 34 34 35 34 32 29 26 24 23 23 23 24 27 32 36 37 35 35 36 37 37 35 32 29 30 31 31 32 32 31 33 35 37 38 38 38 36 35 36 37 38
36 39 41 39 35 34 34 34 34 33 32 31 30 30 30 31 31 32 32 33 34 35 36 37 37 36 37 37 38 41 43 45 45 42 41 40 39 41 43 43 40 37 39 41 38 34 34 36 36 36 34 32 30 29 29 29 30 34 37 36 35 37 39 40 41 42 40 36 34 34 35 36 36 35 34 34 35 38 39 39 38 37 37 38 39 40
37 38 39 38 35 33 34 34 34 34 33 31 30 30 31 31 31 32 34 35 35 36 37 37 37 37 38 39 41 43 45 48 48 44 42 41 40 42 45 45 45 45 43 42 38 35 35 37 39 39 39 39 36 32 30 30 32 35 37 36 35 37 40 41 42 43 44 44 43 41 40 40 39 40 41 41 43 44 45 46 44 42 42 42 43 44
39 38 37 37 34 32 33 34 34 34 33 31 31 32 32 31 31 32 35 36 37 38 38 38 38 38 40 42 43 44 46 49 50 47 45 43 41 43 48 48 47 47 47 45 40 37 37 39 41 42 42 42 40 35 32 31 33 34 35 36 37 37 39 41 42 43 44 45 47 46 44 40 39 40 40 42 45 47 48 49 48 46 45 45 45 46
41 38 36 35 35 32 32 33 34 34 33 32 32 33 33 32 31 32 35 36 37 38 39 40 39 40 41 43 44 44 45 49 51 50 50 49 46 45 49 52 50 49 49 48 44 42 41 42 43 44 44 43 42 41 38 33 33 37 39 39 39 38 38 41 43 43 43 44 45 44 42 39 39 39 39 40 41 39 39 41 42 44 44 43 44 45
41 39 36 34 34 33 32 33 34 35 35 34 33 33 34 34 33 34 35 36 37 38 40 41 41 41 42 43 44 44 45 48 51 53 53 54 52 47 47 50 51 50 50 49 47 46 46 46 45 45 45 44 43 44 44 41 39 41 44 43 41 41 42 43 45 46 46 46 45 46 45 43 43 43 43 44 43 40 41 44 46 46 45 44 45 46
41 40 37 34 34 35 35 35 35 36 36 36 35 35 35 35 35 35 36 36 37 38 40 41 42 42 43 44 43 44 45 47 50 52 53 56 56 52 48 48 50 50 50 50 49 49 49 50 49 48 47 46 47 47 48 49 48 48 49 50 48 47 47 47 47 48 48 47 46 48 49 49 50 50 49 51 50 48 50 51 51 49 48 48 49 50
43 41 39 37 36 37 37 36 35 36 37 37 37 36 36 36 36 36 36 37 38 39 41 42 43 44 44 45 44 44 45 47 49 51 52 54 55 53 48 47 48 50 50 50 50 51 51 51 52 52 51 50 51 51 52 53 53 54 55 55 56 55 54 53 51 50 50 49 48 49 49 50 53 54 54 54 52 50 51 52 52 51 51 51 52 53
45 43 42 41 40 40 39 37 37 38 39 39 39 39 39 38 38 38 38 39 39 41 42 42 43 44 45 45 45 45 46 47 48 49 51 52 53 51 49 47 48 50 51 51 52 52 53 53 54 54 54 54 53 54 55 55 54 56 58 58 58 59 58 57 56 54 53 53 52 53 52 51 53 54 54 54 53 52 51 51 50 49 49 50 51 52
47 46 45 44 43 42 41 40 42 43 42 41 41 41 41 41 40 40 40 41 41 41 42 43 44 45 45 46 46 46 46 47 47 47 48 50 51 50 50 49 49 51 53 53 54 54 54 55 55 56 56 55 55 54 55 55 54 56 59 60 60 60 59 59 58 57 56 56 57 57 57 57 56 55 55 56 56 56 54 53 52 52 53 55 55 55
49 49 48 47 45 44 45 46 47 48 46 44 43 43 43 43 43 43 42 42 41 41 41 42 44 45 46 47 47 47 48 48 48 49 49 50 52 52 51 49 48 51 54 56 56 56 57 57 57 58 58 58 57 56 56 55 55 55 58 60 62 61 61 60 60 59 58 58 59 59 60 61 59 58 58 58 56 55 54 55 56 57 58 59 59 59
51 51 50 49 49 49 49 51 51 50 49 47 46 47 47 46 45 46 45 44 42 41 40 41 43 44 45 46 47 48 48 48 49 51 52 53 54 54 53 51 50 51 54 57 58 58 58 58 59 59 61 61 61 59 58 58 57 56 57 60 62 63 62 62 62 61 61 60 61 61 62 63 63 62 62 60 59 57 57 57 57 56 57 59 61 63
54 54 53 52 52 52 53 54 54 52 51 50 50 50 50 49 47 47 47 46 44 43 41 41 42 43 44 45 45 45 45 47 48 50 52 54 54 55 55 55 54 54 55 57 60 61 60 60 60 61 62 64 65 64 62 61 61 61 60 62 63 64 63 62 62 62 62 62 63 64 65 65 66 67 67 66 65 65 64 63 61 59 60 62 64 65
55 56 56 55 55 55 56 57 56 54 52 52 51 51 51 50 48 46 46 47 46 45 44 43 42 43 43 43 44 43 43 44 45 44 46 49 51 53 55 56 57 59 60 61 61 62 62 61 62 63 64 65 68 69 67 65 65 65 64 64 65 66 65 65 64 64 64 63 64 65 66 67 68 69 70 70 69 70 70 69 67 67 68 69 70 71
56 58 58 58 58 58 58 59 58 57 55 55 54 53 52 51 49 47 44 44 44 44 44 44 43 44 43 42 43 44 43 43 43 41 41 42 44 47 52 56 58 60 62 64 64 64 64 63 63 64 64 66 69 72 72 71 70 69 68 67 67 67 68 68 67 67 66 66 66 66 67 68 69 69 70 70 70 70 70 71 71 73 74 74 74 74
58 59 60 60 60 60 61 61 61 60 59 58 57 57 55 53 52 50 46 44 43 43 43 44 44 44 45 44 45 46 46 45 44 45 45 44 43 45 49 54 58 59 61 63 65 67 67 66 65 64 65 65 66 68 72 74 74 73 72 70 69 69 70 70 71 70 70 70 70 70 70 71 72 73 73 73 73 73 74 74 75 76 76 76 75 75
59 60 61 62 62 62 62 63 64 64 63 61 60 60 58 56 54 52 49 48 47 46 45 45 45 46 47 47 47 47 48 48 48 49 51 51 50 51 52 54 56 59 60 59 60 63 66 67 68 67 66 65 63 63 69 74 75 74 73 72 71 72 72 73 73 74 74 74 74 74 74 75 76 76 77 78 78 79 79 79 79 79 79 79 79 79
61 62 63 63 64 64 64 65 66 66 65 65 63 62 61 59 57 55 54 54 54 51 49 49 49 50 51 51 51 50 50 50 52 53 54 56 57 59 59 57 57 59 59 56 55 58 61 64 67 68 68 68 68 69 71 73 73 73 73 72 72 73 73 75 77 78 78 79 79 80 80 80 81 82 82 82 83 84 84 84 85 84 85 85 86 86
64 64 65 65 66 66 67 67 68 68 68 67 66 65 63 61 60 59 59 58 57 56 55 54 54 54 54 54 54 55 53 52 53 55 55 56 59 61 62 62 61 63 63 62 61 62 63 64 67 68 68 69 71 73 75 75 74 74 74 74 75 75 76 77 78 80 82 82 83 84 85 85 86 86 87 87 87 88 88 88 88 89 90 92 92 92
66 67 67 67 69 70 70 70 70 70 70 69 69 68 66 64 63 62 61 61 61 60 59 58 58 57 57 57 56 57 57 56 55 57 58 58 59 61 63 65 65 67 68 67 67 68 68 69 70 71 71 72 73 74 77 78 78 78 78 78 79 79 80 80 81 83 84 85 86 87 88 89 89 90 90 91 91 92 92 93 94 95 96 96 96 96
66 68 69 70 71 72 73 73 73 72 71 71 70 70 69 68 67 65 64 63 63 63 62 62 61 61 60 60 59 59 60 61 60 60 61 63 63 63 64 66 67 68 69 70 70 70 70 70 70 70 72 74 75 76 78 80 81 82 83 83 83 83 83 83 84 85 86 87 88 89 90 91 92 92 93 93 93 94 95 96 97 98 98 98 98 99
63 66 69 70 73 74 74 75 75 74 73 73 72 71 71 70 69 68 68 67 66 65 65 65 65 65 64 64 63 62 62 63 64 65 66 68 69 69 69 69 69 69 69 70 70 70 71 70 70 70 71 71 73 74 76 77 79 81 83 84 84 84 84 84 84 85 86 88 89 90 91 92 93 94 94 94 95 95 96 97 98 98 98 98 98 98
61 63 66 69 72 74 75 75 76 76 75 74 73 72 71 71 71 71 71 70 69 68 68 67 68 68 67 66 66 66 65 66 68 70 71 71 71 72 72 72 72 73 73 73 74 74 75 75 75 75 75 75 75 76 76 77 78 79 80 82 83 83 83 84 83 84 84 85 87 89 90 92 93 94 95 95 96 96 97 97 97 97 98 98 97 97
60 61 63 66 69 72 74 75 76 77 77 76 75 74 73 72 72 73 73 73 73 72 70 69 68 68 68 67 68 69 70 71 72 73 73 74 74 74 74 74 74 75 76 76 76 77 78 79 79 79 79 80 80 80 80 80 80 81 81 82 83 83 83 83 83 83 84 84 85 86 88 89 90 91 93 94 95 95 96 96 96 97 97 97 97 97
58 60 62 64 66 69 71 74 76 77 78 78 77 77 76 74 74 74 74 75 75 75 74 72 70 67 67 67 68 70 72 73 74 75 75 75 75 76 76 76 76 76 76 77 77 77 78 79 79 79 80 80 80 81 81 81 81 82 82 83 83 83 84 84 84 85 85 85 86 86 87 88 89 90 91 92 92 92 92 93 93 93 93 93 93 93
54 56 59 62 64 66 68 71 73 75 77 78 79 79 79 78 77 77 76 76 76 76 76 75 73 71 69 69 69 70 71 73 74 75 76 77 77 77 77 77 77 77 77 78 78 79 79 80 80 80 80 80 81 81 82 82 83 83 83 83 83 83 84 84 84 84 84 85 85 86 86 87 88 88 89 89 89 89 89 89 90 90 90 91 91 91
50 53 56 59 61 63 66 68 70 72 75 77 78 79 80 80 80 79 79 78 78 77 78 77 76 75 73 72 72 71 72 72 73 74 75 76 77 78 79 79 79 79 80 80 81 81 81 81 81 81 81 81 82 82 83 83 84 84 84 84 85 85 86 86 86 86 86 86 86 86 87 87 88 88 89 89 89 89 90 90 90 90 91 91 92 92
47 50 52 55 57 60 62 64 67 69 71 73 75 77 78 80 81 81 81 81 80 80 80 80 79 78 77 76 75 74 74 74 74 75 75 76 77 78 78 79 80 81 81 82 82 83 83 83 83 83 84 84 84 84 84 85 85 85 85 86 86 87 87 87 88 88 88 89 89 89 89 89 89 90 90 90 91 91 92 92 92 93 93 93 93 94
Wind_Direction
265 265 263 261 259 259 259 259 258 257 256 254 252 251 250 249 248 250 250 250 249 249 248 248 245 243 244 246 248 248 246 246 248 250 251 252 251 252 251 250 248 248 248 248 248 248 248 247 247 247 247 248 249 251 253 254 254 256 257 258 260 261 263 263 262 261 261 262 262 263 263 264 266 267 269 269 271 272 274 275 276 278 279 280 280 279
264 263 261 260 261 261 260 258 257 256 255 253 252 250 249 248 246 247 249 248 248 247 248 247 245 243 244 246 248 247 246 245 246 247 249 250 250 250 249 247 246 246 247 247 248 248 248 248 248 248 249 249 250 251 252 253 254 255 256 257 258 259 260 260 260 260 260 260 260 261 261 262 264 265 266 268 270 271 273 274 275 277 278 278 279 279
261 260 260 261 262 261 258 256 255 254 253 251 250 248 247 246 245 246 247 246 246 246 246 246 244 243 242 244 247 247 246 245 245 246 247 248 248 248 246 245 246 246 247 247 248 249 248 248 248 248 248 248 249 250 252 253 254 254 255 255 256 256 257 257 257 258 258 258 258 259 259 260 261 263 264 266 268 270 271 272 274 275 276 277 278 278
258 259 260 261 260 258 257 255 254 253 251 249 247 246 245 245 245 245 245 245 245 244 245 245 242 242 243 244 246 247 246 245 246 246 247 246 245 245 246 247 248 248 248 248 248 248 247 247 247 247 247 247 249 250 252 253 254 254 254 254 253 253 253 254 255 256 256 256 256 257 257 258 259 260 262 265 267 269 271 272 274 276 276 276 277 278
256 258 259 259 257 256 257 256 254 251 250 248 246 244 243 243 243 244 244 244 244 243 244 244 242 242 243 243 244 245 246 245 244 245 244 242 242 243 245 247 248 248 248 247 245 245 245 246 246 246 246 247 249 250 252 253 253 253 253 252 252 251 252 253 254 254 254 254 255 255 256 257 258 259 262 265 267 270 272 273 276 277 277 277 277 278
255 257 257 256 255 256 256 255 252 250 248 247 245 243 242 242 241 243 244 243 242 242 243 243 242 242 243 243 242 243 244 243 242 241 240 239 241 242 243 245 246 247 247 246 245 245 244 244 245 246 246 247 248 249 251 251 252 252 252 251 251 251 252 253 253 253 253 253 254 254 255 256 258 260 263 265 268 271 273 274 276 277 276 277 277 278
253 254 255 255 255 256 256 254 251 248 246 245 243 241 241 241 242 244 245 243 241 241 242 243 242 243 243 242 242 242 243 243 241 239 237 238 240 241 242 243 244 245 246 246 246 246 245 244 245 246 246 247 247 249 249 250 250 250 251 251 251 252 253 254 253 252 253 254 255 256 256 258 260 262 263 265 268 270 272 274 275 276 276 276 278 279
252 253 254 255 256 256 254 252 249 247 246 245 242 240 241 242 243 245 245 244 242 240 241 242 242 242 243 243 242 241 241 242 242 239 237 237 239 240 241 241 242 244 245 246 247 247 246 246 247 247 247 247 247 248 249 249 249 250 251 252 252 253 253 253 253 252 253 255 257 258 259 261 263 264 264 265 267 269 272 274 275 277 278 279 280 281
252 252 253 254 256 255 252 250 248 246 246 245 243 242 243 245 245 246 245 244 242 240 241 241 241 241 243 243 242 239 238 239 239 238 236 236 237 239 241 242 243 244 245 246 247 247 248 248 248 248 248 247 247 248 248 248 248 249 251 252 253 254 253 252 252 253 254 255 257 260 262 264 265 265 265 265 266 269 271 273 275 277 279 281 282 282
251 251 252 254 254 252 250 248 247 246 245 245 245 244 245 246 246 245 244 243 241 240 241 240 240 240 241 241 240 238 236 236 236 235 235 235 236 238 240 241 242 243 244 245 246 247 247 247 248 248 247 246 246 246 247 247 248 248 250 251 253 254 254 253 254 255 256 256 257 260 263 264 265 266 266 266 268 270 272 272 273 275 278 281 283 283
249 250 251 251 251 251 250 249 247 246 246 247 247 245 245 245 245 244 242 242 240 239 240 238 237 238 238 237 237 235 233 233 235 234 233 233 234 236 238 238 239 240 241 242 244 245 246 246 247 246 245 245 245 245 246 247 248 248 249 251 253 254 254 255 256 257 258 258 260 261 263 264 266 266 267 267 269 271 273 271 271 273 276 279 282 283
247 249 250 250 251 251 250 249 247 247 248 248 246 244 243 243 243 243 242 240 238 237 238 236 235 236 235 234 234 235 233 232 234 234 232 232 233 235 236 237 238 238 239 240 242 243 243 243 243 243 244 244 245 245 246 247 247 248 249 250 252 253 253 254 255 256 258 259 261 263 264 265 266 267 267 268 269 271 273 270 269 271 274 276 279 281
247 248 249 251 252 250 249 249 248 247 248 248 247 245 243 242 241 241 240 238 235 234 234 233 233 234 234 234 234 234 232 229 231 233 233 233 234 236 237 237 238 238 239 239 240 241 241 241 241 241 243 244 245 246 246 247 247 248 249 250 251 251 252 253 254 255 257 260 262 264 265 266 267 267 268 269 270 271 272 269 268 271 274 276 279 280
246 246 247 250 250 248 248 247 246 246 246 247 246 245 244 242 240 239 237 234 232 232 232 231 231 233 234 235 233 232 230 228 230 233 235 236 236 237 236 236 236 238 239 238 238 240 240 241 241 241 242 243 245 246 248 249 249 249 250 251 251 251 252 253 254 257 259 261 262 264 265 266 267 267 268 269 270 270 270 268 269 272 275 277 279 280
245 244 245 247 248 247 246 246 246 246 246 247 246 245 243 241 239 237 234 231 229 230 231 230 230 233 235 235 233 231 229 227 228 232 234 235 235 235 235 233 232 233 234 234 236 239 239 241 242 241 242 244 246 248 249 250 251 250 251 252 252 253 253 254 255 257 260 262 263 264 264 265 266 266 267 267 268 268 268 269 270 272 275 277 278 279
243 243 244 246 248 248 248 247 248 249 249 249 248 245 241 237 235 235 234 231 229 230 230 229 228 231 234 235 233 232 230 228 227 229 232 234 234 233 232 232 231 230 231 232 235 237 238 241 244 243 243 245 247 249 250 252 253 251 251 252 253 254 255 255 256 258 260 262 264 265 266 266 267 267 267 266 265 265 266 269 271 274 276 277 277 278
242 243 245 247 249 250 249 248 249 250 250 250 248 245 241 238 236 234 234 233 231 231 231 229 227 228 231 230 229 231 230 228 227 228 231 233 233 233 233 234 234 232 231 233 237 239 238 239 244 246 245 245 246 248 250 252 252 251 251 252 254 256 257 257 257 257 260 263 265 267 268 268 268 267 266 264 262 262 265 269 273 275 277 277 276 275
240 243 246 248 249 250 250 248 247 249 249 249 248 247 245 242 238 234 232 232 233 233 232 230 227 228 228 224 222 223 222 222 223 227 232 235 237 239 242 242 239 234 234 238 241 242 238 239 244 247 247 246 246 248 250 251 251 250 250 251 254 258 259 259 261 262 263 264 265 267 268 268 265 263 262 261 262 265 268 271 274 275 275 275 274 274
238 242 243 245 247 248 247 245 244 245 246 246 246 247 246 243 237 233 229 228 229 230 229 228 226 225 224 220 216 215 215 213 208 211 228 240 242 241 241 242 238 234 236 241 242 242 240 240 245 248 247 247 247 249 250 251 251 251 250 252 256 260 262 264 266 267 266 264 264 266 267 264 260 258 260 262 264 267 269 270 271 272 274 276 276 276
238 241 242 243 246 245 242 241 240 240 240 241 240 240 239 238 236 233 228 226 225 224 223 223 222 221 218 216 213 208 205 202 195 195 210 225 228 225 227 234 234 233 237 242 243 243 242 242 246 249 248 247 248 249 250 252 253 253 254 257 260 263 263 259 255 256 257 257 261 265 264 263 260 259 259 261 264 267 269 270 272 273 275 277 277 277
238 241 242 243 245 245 243 240 238 238 238 238 237 235 234 232 231 230 227 225 224 223 221 219 218 217 215 213 209 199 186 182 193 204 205 213 220 224 229 233 233 235 239 243 244 245 241 237 237 244 248 250 252 253 254 256 258 259 260 261 261 261 255 243 239 243 248 254 261 265 265 265 264 263 264 266 269 271 273 275 275 274 274 275 275 276
238 241 242 241 243 245 245 242 240 240 239 237 236 235 233 230 229 228 226 223 222 221 220 217 213 213 213 212 206 194 180 176 191 205 205 209 218 225 231 231 229 235 238 237 237 237 236 231 227 232 243 251 258 261 262 262 260 258 255 252 252 252 245 237 237 242 249 257 266 269 270 270 272 274 274 272 271 272 275 276 275 274 272 271 272 273
237 241 242 241 242 244 245 243 241 240 240 238 236 235 234 231 229 227 226 224 222 219 218 217 213 211 211 210 205 195 184 177 185 197 202 210 219 224 227 223 222 231 235 233 231 230 231 229 224 225 232 239 246 255 260 257 249 243 239 240 243 243 241 239 239 245 252 259 264 270 274 277 279 280 277 272 270 271 275 276 276 276 275 273 271 271
238 242 243 242 241 243 243 242 240 240 240 239 238 236 235 233 229 226 224 224 224 222 219 217 214 210 209 208 204 197 187 179 183 192 198 208 219 225 224 218 216 226 233 232 230 227 226 224 220 220 224 224 225 231 234 229 225 227 230 235 240 241 242 244 244 248 252 252 252 259 267 271 271 270 267 265 267 268 269 270 272 275 277 278 278 278
236 241 244 243 242 243 243 242 240 239 238 238 238 236 236 234 230 225 222 221 222 222 220 217 214 211 209 207 204 200 192 185 185 190 196 205 216 222 222 219 216 220 227 229 225 222 220 218 216 218 220 219 217 219 219 215 217 223 227 233 241 243 242 241 242 244 248 250 251 254 259 262 262 262 260 259 261 262 263 265 269 273 277 278 281 282
232 238 243 243 242 242 242 241 239 238 236 235 236 235 234 234 230 224 220 219 219 219 220 219 214 211 210 208 205 202 197 193 192 193 198 205 216 223 223 222 220 219 221 222 220 217 216 216 215 217 221 220 218 218 217 214 218 223 226 230 235 239 240 239 238 240 243 247 250 252 256 260 263 263 262 261 262 265 268 270 271 274 276 276 278 280
228 232 238 241 239 238 241 242 241 240 237 234 234 234 234 233 231 226 221 219 219 218 218 218 215 212 210 209 208 205 201 199 198 199 201 205 213 221 224 224 223 222 221 219 218 214 210 211 214 217 221 223 221 219 214 210 213 217 220 224 225 229 235 236 237 239 241 243 247 251 255 260 263 264 265 266 268 271 275 276 275 275 276 277 280 281
227 227 232 237 236 233 236 240 241 240 237 234 233 234 234 232 231 229 225 221 220 219 219 218 216 213 212 212 211 208 205 203 202 202 205 208 211 217 222 224 225 224 221 219 219 215 211 210 213 216 221 223 224 222 216 211 212 213 215 219 220 221 229 233 236 240 243 245 247 251 255 258 260 261 264 269 272 273 273 272 274 277 279 280 282 283
229 227 228 233 237 234 231 235 238 238 237 235 232 232 232 231 229 228 225 222 220 220 219 219 218 215 214 214 214 212 209 207 205 206 209 211 214 218 223 225 226 225 224 222 221 219 216 215 215 216 219 221 223 224 222 221 221 219 218 220 221 221 225 230 234 239 243 246 250 253 254 254 256 260 264 268 269 267 265 266 272 277 279 279 281 282
230 229 227 229 234 235 231 230 234 236 235 234 232 231 231 230 228 227 225 222 220 219 218 219 219 218 216 216 215 214 213 211 209 209 211 213 216 219 222 225 226 226 226 225 224 223 221 220 220 219 219 220 223 226 229 231 232 230 227 226 228 229 229 231 234 236 239 243 249 254 255 255 258 261 264 266 266 266 268 270 273 275 277 278 279 280
230 229 228 227 229 233 232 230 231 233 233 232 231 230 230 229 227 225 223 221 219 218 218 218 219 219 219 218 216 215 215 215 214 212 211 213 215 217 220 224 226 226 226 226 226 226 225 224 223 223 223 224 226 230 234 238 239 237 234 233 234 236 237 238 238 238 239 240 245 251 254 254 256 258 260 262 265 267 268 270 273 275 277 277 278 279
229 228 228 227 227 229 231 230 230 230 229 229 229 229 229 229 227 225 222 220 219 218 218 218 218 219 220 220 219 217 216 217 218 216 214 214 215 216 219 223 226 227 227 227 227 227 228 227 226 228 229 229 231 234 237 240 242 241 240 238 238 239 240 242 242 242 242 241 242 245 248 250 251 253 254 256 259 262 264 267 271 275 276 276 277 278
229 228 227 227 229 229 229 228 228 227 227 228 229 228 229 229 228 226 224 222 221 220 219 220 219 219 220 222 222 221 218 218 218 218 217 216 216 218 221 223 226 228 229 229 229 228 228 228 229 230 232 233 235 237 240 242 243 243 242 241 241 241 241 242 243 244 244 244 244 245 246 247 250 252 253 254 256 260 263 266 269 272 274 275 276 276
227 228 227 226 228 229 229 227 226 225 226 228 230 229 229 228 227 227 227 226 225 222 220 220 221 220 221 222 223 223 222 220 219 218 218 217 217 219 222 224 227 230 231 230 230 230 229 230 230 231 233 235 237 239 241 242 243 243 244 244 243 243 243 243 244 244 244 245 246 246 246 246 248 252 254 256 259 262 265 267 269 271 273 274 275 276
225 228 228 227 227 228 229 229 228 227 226 226 227 230 231 229 226 226 227 228 228 226 223 222 222 222 222 223 224 225 224 223 222 221 220 220 220 221 222 223 226 231 232 232 231 232 232 231 232 233 234 235 237 238 240 241 242 241 242 243 244 244 244 245 246 246 246 246 246 246 245 245 245 248 252 255 258 260 264 267 268 269 271 272 274 276
226 227 228 228 228 229 230 232 232 231 230 229 228 229 232 232 230 227 227 228 229 230 229 226 225 226 226 226 227 229 230 228 226 225 225 224 224 224 224 224 226 229 231 233 233 234 235 236 236 236 236 237 238 238 239 240 241 241 241 242 243 244 244 246 247 248 248 248 247 246 246 246 246 247 249 252 253 256 260 263 266 267 269 270 272 275
228 229 229 228 229 230 231 233 235 234 234 234 232 231 232 234 234 231 229 229 229 230 230 230 229 229 228 229 230 231 232 233 231 229 228 229 229 228 227 226 227 229 230 231 232 234 237 239 240 239 239 240 240 239 239 240 241 242 243 243 244 245 245 246 247 248 249 249 248 248 248 248 247 247 248 250 251 253 255 258 262 265 267 270 272 274
229 230 231 230 229 230 231 233 235 236 235 236 237 236 235 236 238 238 235 232 231 231 231 232 232 231 229 228 228 229 230 231 229 225 225 227 229 231 229 227 229 232 232 232 232 233 236 239 241 242 242 243 244 243 241 241 241 243 244 245 246 247 248 247 247 248 249 249 249 249 249 248 248 248 248 249 250 251 253 256 259 263 266 269 271 273
228 229 231 231 231 231 231 232 234 236 237 237 238 240 240 239 240 241 240 236 234 233 232 233 234 235 233 230 226 225 227 228 225 219 218 220 224 229 229 229 230 233 235 235 234 234 235 237 240 242 243 244 246 247 245 243 242 243 245 246 247 248 249 249 248 248 248 249 249 250 250 250 250 250 251 251 251 252 255 257 260 263 266 268 271 272
228 228 230 232 232 232 232 232 234 236 238 238 238 239 241 241 241 241 241 240 238 236 234 234 235 236 238 236 232 227 225 227 227 221 216 215 218 222 225 226 228 231 235 237 237 236 236 237 238 240 242 242 242 244 246 246 246 245 246 247 247 247 247 248 248 248 248 249 250 250 251 252 252 253 254 254 255 255 256 258 260 262 264 267 269 270
227 228 228 230 232 232 232 233 234 235 238 239 239 239 240 241 241 241 240 240 240 237 235 234 234 235 237 238 238 235 230 228 231 230 225 220 219 222 224 224 225 228 231 233 233 233 235 236 237 239 240 242 243 245 248 249 250 249 249 249 248 247 247 247 247 247 248 249 250 251 251 252 254 255 256 257 258 258 259 260 261 263 265 267 269 270
225 226 227 228 230 232 232 233 234 235 237 239 240 240 241 241 241 240 239 239 239 238 236 233 232 233 234 235 237 239 237 233 231 234 234 230 227 227 228 228 228 229 231 232 233 233 234 235 237 238 240 242 245 247 248 249 250 250 251 251 250 249 248 248 247 248 248 249 250 251 252 253 254 256 258 259 260 261 261 262 264 265 267 269 270 271
225 226 227 227 228 230 232 233 234 235 236 238 239 241 242 242 241 241 240 239 239 239 238 236 234 233 233 234 235 238 240 238 234 233 235 235 234 233 233 233 233 233 234 236 237 238 239 240 240 240 242 244 246 248 249 250 250 251 251 251 251 250 250 250 249 249 250 250 251 251 252 254 255 257 258 259 261 261 262 263 265 266 268 269 270 271
227 227 227 228 229 230 232 233 235 235 236 236 238 239 241 242 243 243 242 241 240 239 239 239 238 237 236 235 235 235 238 240 239 237 236 236 236 236 236 236 237 237 238 240 241 242 244 245 245 246 246 246 247 248 249 251 251 252 252 252 252 252 252 252 252 252 252 252 252 253 254 255 256 258 259 260 261 262 263 264 266 267 269 270 271 272
229 229 229 230 231 232 233 234 236 237 237 237 237 238 239 241 243 243 244 243 242 241 240 239 239 238 238 237 237 237 237 238 239 239 239 238 238 238 238 238 238 239 240 242 243 244 246 247 249 250 250 250 250 250 251 252 253 254 254 255 255 255 255 255 255 255 255 255 255 255 256 256 257 258 259 261 262 263 265 266 267 269 270 271 272 273
230 231 231 232 233 234 235 236 237 238 239 240 240 239 239 240 241 243 244 245 245 244 242 240 239 238 238 238 238 238 239 238 238 238 239 239 240 241 242 242 242 242 243 243 244 246 246 247 248 249 250 251 252 252 253 254 255 256 257 257 258 258 259 259 259 259 259 258 258 258 258 258 259 259 260 261 262 263 265 266 267 269 270 271 272 273
232 232 233 233 234 235 236 237 238 240 241 242 243 243 242 241 241 241 243 244 246 246 246 244 242 240 239 238 238 238 239 239 239 239 240 240 241 242 243 244 244 245 246 247 247 248 248 248 249 250 250 251 252 253 254 255 255 256 256 257 258 258 259 259 260 260 261 261 261 261 261 261 261 261 262 263 263 264 265 266 267 268 269 270 271 271
235 235 234 235 235 236 237 237 238 240 241 243 244 245 245 244 243 243 243 243 245 247 248 248 246 245 243 241 240 240 240 240 241 242 242 243 244 244 245 245 246 246 247 248 249 249 249 250 250 251 252 253 254 255 255 256 256 257 257 257 258 258 258 259 259 260 260 261 261 261 262 262 262 263 264 264 265 265 266 267 267 268 269 269 270 271
237 237 237 237 237 238 238 238 239 240 241 242 243 244 245 246 246 246 245 245 246 246 248 249 249 248 247 246 244 243 243 243 243 244 244 245 246 246 247 248 249 249 250 250 250 250 250 251 251 252 253 254 255 255 256 257 258 259 259 259 260 260 261 261 261 261 261 262 262 262 263 263 264 265 265 266 266 267 267 268 268 269 269 270 271 271
239 239 238 239 239 239 240 240 240 241 241 242 243 244 244 246 247 247 248 248 248 248 249 250 250 250 250 249 248 247 247 246 246 246 246 246 247 247 248 249 249 250 251 252 252 253 253 254 254 255 255 256 256 257 257 258 259 259 260 260 261 262 262 263 263 264 264 264 264 265 265 265 266 266 267 267 268 268 268 268 269 269 269 269 270 270
242 241 240 240 240 240 241 242 242 243 244 244 244 245 245 246 247 247 248 249 249 250 250 251 251 252 252 251 251 251 250 250 249 249 248 248 248 248 248 248 249 249 250 251 253 254 255 256 257 258 258 259 259 259 259 260 260 260 260 260 261 262 262 263 263 264 264 265 265 265 265 266 266 266 267 267 267 268 268 268 268 268 269 269 269 270
Height
10565 10567 10565 10562 10563 10567 10571 10574 10574 10573 10574 10577 10580 10581 10580 10582 10582 10576 10576 10584 10590 10597 10602 10603 10610 10614 10609 10604 10605 10615 10624 10625 10624 10627 10633 10641 10645 10649 10653 10654 10651 10649 10651 10655 10660 10662 10666 10669 10670 10672 10675 10676 10677 10676 10677 10678 10680 10682 10682 10681 10681 10682 10683 10684 10684 10684 10685 10686 10686 10686 10686 10685 10685 10686 10686 10686 10686 10686 10686 10687 10688 10689 10690 10690 10690 10690
10559 10558 10554 10555 10560 10563 10566 10567 10567 10566 10567 10570 10573 10573 10573 10574 10573 10569 10572 10578 10584 10592 10595 10595 10603 10607 10602 10598 10599 10608 10617 10618 10618 10623 10629 10635 10640 10643 10643 10643 10641 10642 10645 10649 10653 10656 10659 10662 10663 10666 10669 10671 10670 10670 10671 10673 10675 10677 10676 10676 10677 10677 10678 10679 10679 10679 10680 10680 10680 10681 10681 10681 10681 10681 10681 10681 10681 10681 10682 10683 10684 10685 10685 10686 10686 10686
10551 10548 10546 10552 10556 10557 10558 10559 10560 10560 10561 10563 10565 10566 10566 10565 10565 10565 10566 10571 10579 10587 10587 10588 10596 10598 10594 10593 10594 10601 10610 10612 10614 10619 10624 10631 10635 10634 10633 10633 10633 10636 10640 10645 10649 10651 10653 10655 10657 10660 10663 10663 10663 10664 10666 10667 10670 10670 10670 10671 10671 10672 10673 10673 10674 10674 10675 10675 10675 10676 10676 10676 10676 10676 10676 10676 10677 10677 10677 10678 10680 10681 10681 10681 10682 10682
10542 10539 10543 10549 10550 10549 10551 10552 10553 10554 10554 10556 10558 10559 10558 10558 10560 10559 10559 10566 10576 10581 10579 10581 10588 10588 10586 10589 10590 10595 10603 10609 10612 10616 10622 10627 10627 10626 10625 10625 10627 10631 10635 10641 10644 10645 10646 10649 10652 10654 10656 10657 10657 10659 10660 10662 10664 10664 10664 10664 10665 10666 10667 10668 10669 10669 10669 10670 10670 10671 10671 10671 10671 10672 10672 10673 10673 10673 10674 10674 10675 10676 10677 10677 10677 10678
10533 10534 10540 10542 10542 10543 10545 10546 10547 10548 10548 10550 10551 10552 10551 10553 10555 10552 10554 10565 10572 10574 10573 10575 10581 10581 10581 10584 10586 10591 10598 10604 10608 10613 10618 10619 10618 10618 10619 10620 10622 10625 10629 10634 10638 10638 10641 10643 10646 10648 10650 10651 10652 10654 10655 10657 10658 10658 10658 10658 10659 10660 10661 10663 10663 10664 10664 10665 10665 10666 10667 10667 10667 10668 10669 10669 10669 10670 10670 10671 10671 10671 10672 10673 10673 10673
10527 10530 10534 10534 10536 10538 10539 10540 10541 10542 10543 10544 10545 10546 10546 10547 10548 10546 10552 10562 10567 10568 10568 10570 10575 10575 10575 10577 10582 10589 10594 10599 10604 10608 10611 10610 10610 10611 10613 10614 10617 10619 10622 10627 10631 10633 10635 10638 10640 10642 10644 10646 10647 10649 10650 10651 10652 10652 10652 10652 10653 10654 10656 10657 10658 10659 10659 10660 10660 10662 10663 10663 10663 10664 10665 10665 10666 10666 10667 10667 10667 10667 10667 10668 10669 10669
10521 10525 10527 10527 10531 10533 10533 10534 10535 10536 10538 10538 10538 10539 10540 10541 10543 10544 10550 10558 10561 10564 10563 10565 10569 10569 10568 10572 10579 10586 10590 10594 10599 10603 10604 10604 10603 10604 10606 10609 10612 10614 10617 10620 10624 10627 10630 10633 10635 10637 10639 10641 10642 10644 10645 10645 10646 10646 10646 10647 10648 10649 10650 10652 10653 10654 10655 10655 10656 10657 10658 10659 10659 10660 10661 10661 10662 10663 10663 10663 10663 10663 10663 10664 10664 10665
10516 10521 10520 10522 10526 10527 10527 10528 10529 10531 10532 10531 10531 10534 10536 10537 10540 10543 10548 10553 10555 10559 10559 10560 10563 10563 10562 10567 10576 10583 10587 10590 10593 10597 10598 10597 10597 10598 10601 10604 10607 10610 10613 10615 10619 10622 10626 10629 10630 10632 10634 10635 10637 10638 10639 10640 10640 10641 10641 10642 10643 10644 10646 10647 10649 10650 10650 10651 10651 10652 10654 10655 10655 10656 10656 10657 10658 10659 10659 10659 10659 10659 10659 10659 10660 10660
10513 10515 10514 10518 10521 10520 10521 10522 10524 10526 10526 10523 10526 10531 10534 10535 10538 10540 10544 10547 10550 10554 10554 10555 10557 10557 10558 10565 10572 10579 10582 10585 10587 10590 10590 10590 10591 10593 10595 10599 10603 10607 10609 10611 10614 10617 10621 10623 10624 10626 10628 10631 10632 10633 10634 10634 10635 10636 10636 10637 10638 10639 10641 10642 10644 10644 10645 10646 10647 10648 10649 10650 10651 10652 10652 10653 10654 10655 10655 10655 10655 10655 10655 10655 10656 10656
10508 10508 10510 10515 10514 10512 10514 10517 10519 10521 10518 10518 10524 10529 10531 10532 10533 10535 10539 10541 10545 10549 10549 10550 10552 10552 10556 10562 10567 10572 10577 10579 10581 10583 10584 10585 10587 10589 10592 10596 10600 10603 10606 10608 10610 10613 10616 10617 10619 10621 10623 10626 10627 10628 10629 10629 10630 10631 10632 10632 10633 10634 10636 10637 10638 10639 10640 10642 10643 10644 10644 10646 10647 10647 10648 10649 10650 10650 10650 10651 10651 10651 10651 10651 10652 10653
10501 10504 10508 10508 10507 10507 10510 10513 10515 10514 10514 10516 10522 10525 10526 10527 10528 10530 10534 10536 10542 10544 10543 10545 10547 10548 10553 10557 10560 10566 10571 10574 10575 10577 10579 10580 10583 10585 10589 10592 10596 10599 10602 10604 10606 10608 10611 10613 10615 10617 10619 10621 10622 10623 10624 10624 10626 10627 10627 10628 10629 10630 10632 10633 10634 10635 10636 10637 10638 10639 10639 10641 10642 10643 10643 10644 10644 10645 10645 10646 10647 10647 10647 10648 10648 10649
10497 10501 10502 10501 10502 10504 10506 10508 10509 10510 10511 10514 10517 10519 10521 10523 10524 10526 10529 10533 10538 10539 10537 10540 10542 10544 10548 10552 10556 10561 10566 10570 10571 10572 10574 10576 10579 10582 10585 10589 10592 10595 10598 10600 10603 10604 10606 10608 10610 10612 10614 10616 10617 10617 10618 10619 10621 10622 10623 10625 10625 10627 10628 10629 10630 10630 10631 10632 10633 10633 10634 10635 10636 10637 10637 10638 10639 10640 10641 10642 10642 10643 10644 10644 10644 10644
10495 10497 10497 10497 10498 10499 10501 10503 10504 10506 10508 10510 10512 10515 10517 10519 10520 10522 10525 10529 10533 10532 10532 10535 10538 10540 10544 10548 10554 10558 10561 10565 10567 10568 10570 10573 10577 10579 10583 10586 10588 10592 10595 10597 10598 10599 10600 10602 10604 10607 10608 10610 10611 10611 10613 10615 10617 10618 10620 10621 10622 10623 10624 10625 10626 10626 10627 10628 10628 10628 10629 10630 10631 10631 10632 10632 10634 10635 10636 10637 10638 10639 10639 10639 10640 10640
10491 10492 10493 10493 10492 10494 10496 10497 10499 10502 10504 10506 10508 10510 10513 10515 10517 10518 10521 10525 10527 10526 10528 10532 10534 10537 10541 10546 10551 10554 10558 10561 10563 10565 10568 10571 10574 10577 10580 10582 10586 10591 10592 10592 10593 10594 10596 10597 10600 10601 10603 10605 10606 10607 10609 10611 10613 10614 10616 10618 10619 10620 10620 10621 10622 10622 10623 10623 10624 10624 10625 10625 10626 10627 10627 10627 10628 10630 10631 10633 10634 10635 10635 10635 10635 10635
10485 10487 10489 10488 10487 10489 10491 10493 10496 10498 10501 10502 10504 10506 10509 10511 10512 10514 10516 10519 10521 10522 10524 10529 10532 10535 10538 10543 10548 10551 10555 10557 10560 10563 10565 10568 10571 10574 10577 10579 10584 10588 10587 10587 10589 10590 10591 10593 10595 10597 10599 10601 10602 10603 10604 10606 10609 10611 10613 10614 10615 10616 10617 10618 10619 10619 10619 10620 10620 10621 10621 10622 10622 10622 10623 10623 10624 10625 10626 10628 10629 10630 10631 10631 10631 10631
10480 10482 10483 10482 10484 10485 10487 10490 10494 10495 10497 10499 10501 10503 10504 10505 10507 10510 10512 10515 10517 10519 10522 10527 10531 10533 10536 10541 10546 10549 10552 10555 10557 10560 10562 10565 10568 10571 10574 10576 10580 10582 10581 10582 10584 10585 10586 10589 10591 10593 10595 10597 10598 10598 10600 10603 10605 10607 10609 10611 10612 10613 10614 10615 10616 10616 10616 10616 10617 10617 10617 10618 10618 10619 10619 10620 10620 10621 10622 10624 10625 10626 10626 10626 10627 10627
10476 10477 10478 10479 10481 10481 10484 10489 10491 10492 10494 10496 10497 10498 10498 10501 10505 10508 10510 10512 10514 10516 10520 10525 10529 10531 10534 10540 10544 10547 10550 10553 10555 10557 10560 10563 10566 10568 10571 10573 10577 10578 10578 10579 10580 10581 10583 10586 10588 10590 10592 10593 10594 10595 10597 10599 10601 10603 10605 10607 10608 10610 10611 10612 10613 10613 10613 10613 10613 10613 10613 10614 10614 10615 10615 10616 10617 10618 10619 10620 10620 10621 10621 10622 10622 10622
10471 10472 10474 10476 10477 10478 10482 10486 10487 10489 10491 10492 10493 10494 10496 10500 10503 10505 10507 10509 10512 10514 10518 10523 10526 10529 10533 10538 10541 10544 10547 10550 10553 10556 10559 10561 10565 10569 10572 10573 10575 10575 10575 10576 10577 10579 10581 10583 10586 10588 10588 10589 10590 10592 10593 10595 10597 10599 10601 10603 10605 10607 10609 10609 10610 10610 10609 10609 10609 10609 10609 10610 10610 10611 10612 10612 10613 10613 10614 10615 10615 10615 10616 10617 10616 10617
10467 10467 10469 10471 10472 10475 10479 10481 10483 10485 10487 10487 10489 10491 10494 10497 10499 10501 10504 10506 10508 10512 10516 10520 10524 10528 10532 10535 10537 10541 10544 10547 10550 10554 10559 10564 10568 10572 10573 10572 10571 10571 10572 10573 10575 10576 10579 10581 10583 10584 10585 10586 10587 10589 10591 10592 10594 10596 10598 10601 10603 10606 10607 10608 10609 10606 10603 10603 10604 10605 10605 10606 10606 10607 10607 10607 10607 10607 10608 10608 10609 10610 10612 10612 10611 10612
10463 10463 10465 10467 10469 10471 10474 10476 10479 10481 10482 10483 10485 10487 10489 10491 10494 10497 10500 10502 10505 10508 10513 10517 10521 10525 10528 10530 10534 10538 10542 10546 10549 10552 10558 10562 10564 10566 10567 10566 10566 10566 10568 10570 10573 10575 10577 10578 10579 10580 10581 10583 10585 10587 10588 10590 10593 10595 10598 10601 10603 10604 10606 10608 10607 10602 10597 10597 10599 10599 10600 10600 10601 10601 10602 10601 10601 10601 10601 10602 10604 10606 10607 10607 10606 10606
10459 10459 10461 10464 10465 10467 10470 10473 10475 10477 10478 10480 10482 10483 10484 10487 10490 10492 10495 10498 10502 10505 10509 10513 10518 10521 10523 10526 10531 10536 10542 10546 10549 10551 10554 10556 10558 10561 10561 10561 10561 10562 10565 10568 10571 10573 10574 10573 10574 10575 10577 10580 10583 10585 10587 10590 10593 10597 10601 10604 10603 10601 10601 10602 10599 10595 10592 10592 10594 10595 10595 10595 10596 10598 10598 10598 10597 10597 10597 10597 10599 10601 10602 10602 10601 10600
10455 10454 10457 10460 10462 10464 10467 10471 10473 10474 10475 10477 10478 10480 10481 10483 10485 10488 10491 10494 10498 10502 10506 10509 10513 10516 10520 10523 10528 10533 10537 10540 10544 10547 10550 10554 10557 10557 10557 10556 10557 10558 10561 10564 10566 10569 10569 10567 10568 10570 10573 10577 10580 10582 10586 10590 10594 10598 10602 10602 10597 10594 10595 10594 10592 10590 10590 10591 10591 10592 10592 10592 10594 10595 10596 10595 10593 10593 10592 10592 10593 10594 10595 10597 10595 10593
10451 10451 10452 10456 10460 10462 10464 10467 10469 10471 10472 10473 10475 10477 10478 10480 10482 10485 10488 10491 10494 10497 10501 10505 10508 10512 10517 10520 10525 10529 10532 10534 10538 10542 10547 10552 10553 10551 10551 10552 10552 10553 10556 10558 10560 10564 10565 10564 10564 10567 10569 10572 10575 10578 10583 10589 10593 10596 10596 10591 10587 10588 10590 10590 10590 10589 10589 10589 10589 10588 10587 10588 10589 10590 10590 10589 10587 10587 10587 10586 10587 10587 10588 10589 10589 10588
10448 10447 10447 10452 10457 10459 10461 10463 10465 10467 10469 10471 10472 10474 10476 10478 10480 10482 10485 10488 10490 10493 10497 10501 10505 10509 10512 10516 10520 10524 10527 10529 10532 10536 10541 10545 10546 10545 10546 10547 10548 10550 10552 10554 10556 10559 10560 10561 10562 10562 10563 10564 10568 10572 10576 10582 10586 10587 10584 10582 10582 10585 10585 10585 10587 10586 10586 10585 10584 10583 10583 10584 10583 10584 10584 10583 10582 10580 10580 10580 10581 10582 10583 10583 10584 10584
10443 10443 10443 10448 10454 10456 10457 10459 10461 10463 10466 10468 10469 10471 10472 10474 10477 10479 10481 10484 10486 10490 10493 10497 10501 10505 10508 10512 10515 10519 10522 10526 10528 10529 10532 10537 10538 10538 10540 10542 10543 10546 10547 10548 10551 10553 10555 10556 10558 10558 10557 10558 10561 10564 10568 10573 10577 10576 10576 10577 10580 10581 10580 10581 10582 10582 10581 10581 10580 10579 10579 10578 10578 10577 10578 10577 10576 10574 10574 10575 10577 10578 10579 10578 10579 10579
10438 10439 10439 10444 10450 10453 10454 10455 10457 10459 10461 10464 10466 10467 10469 10470 10473 10476 10478 10479 10482 10485 10488 10492 10497 10501 10504 10507 10510 10514 10518 10521 10522 10524 10527 10531 10533 10533 10535 10537 10538 10540 10542 10544 10546 10548 10550 10552 10554 10554 10554 10555 10557 10561 10565 10569 10571 10572 10572 10574 10575 10575 10575 10576 10576 10576 10576 10575 10574 10574 10574 10573 10572 10571 10571 10572 10570 10568 10568 10569 10571 10574 10574 10573 10574 10575
10433 10435 10436 10439 10445 10449 10451 10452 10453 10455 10458 10461 10462 10463 10465 10467 10470 10472 10474 10475 10478 10481 10484 10488 10492 10496 10499 10501 10504 10508 10513 10516 10518 10520 10523 10525 10526 10527 10529 10530 10532 10535 10537 10539 10542 10544 10546 10549 10550 10551 10551 10553 10556 10558 10561 10565 10567 10568 10568 10567 10568 10570 10569 10569 10570 10570 10569 10569 10568 10569 10569 10568 10567 10565 10565 10566 10564 10564 10563 10562 10563 10566 10567 10567 10569 10569
10428 10432 10433 10435 10439 10444 10447 10448 10449 10451 10454 10457 10458 10460 10462 10464 10466 10469 10470 10472 10474 10477 10479 10483 10487 10491 10494 10496 10499 10504 10509 10512 10513 10515 10518 10519 10520 10521 10523 10524 10527 10530 10532 10535 10538 10540 10542 10544 10546 10547 10548 10550 10552 10554 10557 10560 10562 10563 10562 10560 10562 10564 10564 10563 10563 10563 10563 10563 10563 10564 10564 10564 10562 10561 10561 10560 10559 10560 10559 10556 10556 10558 10560 10562 10562 10562
10424 10427 10430 10432 10434 10439 10442 10444 10445 10446 10449 10452 10454 10456 10458 10460 10462 10464 10466 10469 10471 10473 10476 10478 10482 10486 10489 10492 10496 10500 10504 10507 10509 10511 10513 10514 10515 10516 10517 10520 10523 10526 10528 10531 10533 10535 10537 10539 10541 10543 10544 10545 10547 10549 10552 10554 10555 10556 10555 10555 10557 10558 10558 10558 10558 10558 10558 10559 10560 10560 10560 10560 10559 10559 10559 10557 10555 10556 10554 10552 10552 10553 10555 10556 10556 10556
10420 10423 10426 10428 10430 10432 10436 10439 10441 10442 10445 10447 10449 10451 10454 10456 10458 10460 10462 10464 10467 10469 10471 10474 10477 10481 10484 10487 10491 10496 10498 10501 10503 10505 10507 10509 10510 10512 10514 10516 10518 10521 10523 10526 10527 10529 10531 10532 10535 10537 10538 10540 10541 10542 10544 10546 10547 10549 10549 10550 10550 10551 10552 10552 10553 10554 10554 10557 10559 10558 10558 10559 10558 10557 10556 10552 10551 10551 10549 10548 10549 10550 10551 10551 10551 10551
10415 10418 10421 10424 10425 10427 10430 10434 10437 10439 10440 10442 10444 10447 10449 10451 10454 10456 10458 10460 10462 10464 10466 10469 10472 10476 10479 10482 10486 10490 10493 10495 10497 10499 10501 10503 10506 10508 10510 10511 10513 10515 10517 10519 10520 10522 10523 10525 10527 10529 10531 10533 10534 10535 10536 10537 10539 10541 10542 10543 10543 10544 10545 10546 10548 10549 10550 10554 10556 10554 10555 10556 10553 10552 10552 10549 10548 10548 10545 10544 10545 10546 10546 10546 10546 10546
10410 10413 10416 10418 10420 10422 10425 10429 10431 10433 10435 10438 10440 10442 10444 10446 10449 10451 10453 10455 10457 10459 10462 10465 10468 10471 10474 10477 10481 10484 10487 10489 10491 10494 10497 10500 10502 10504 10505 10506 10507 10509 10511 10512 10514 10515 10516 10518 10520 10522 10525 10527 10528 10528 10529 10530 10532 10533 10534 10536 10536 10537 10539 10540 10542 10543 10544 10547 10549 10549 10550 10550 10547 10547 10548 10547 10544 10542 10542 10542 10542 10542 10541 10541 10541 10541
10405 10407 10410 10413 10415 10417 10420 10423 10424 10426 10429 10432 10435 10438 10439 10441 10444 10446 10449 10451 10453 10455 10458 10460 10463 10466 10469 10473 10476 10479 10481 10484 10487 10490 10493 10496 10498 10499 10500 10501 10502 10503 10504 10506 10507 10508 10510 10512 10514 10516 10518 10520 10521 10522 10522 10523 10524 10525 10526 10528 10529 10531 10532 10534 10535 10536 10538 10540 10541 10543 10545 10544 10543 10543 10542 10539 10537 10537 10537 10537 10537 10536 10535 10534 10535 10535
10399 10401 10404 10408 10410 10412 10414 10415 10417 10419 10422 10426 10429 10432 10433 10436 10439 10441 10444 10446 10449 10451 10454 10456 10459 10462 10465 10468 10471 10473 10476 10479 10482 10485 10488 10490 10491 10493 10495 10497 10498 10497 10497 10499 10500 10501 10503 10505 10508 10510 10511 10513 10514 10515 10515 10515 10516 10517 10518 10520 10522 10524 10525 10527 10528 10530 10531 10533 10535 10537 10538 10538 10539 10539 10535 10532 10532 10531 10531 10529 10529 10530 10528 10527 10528 10529
10393 10395 10398 10402 10404 10405 10406 10408 10410 10413 10416 10420 10423 10425 10427 10430 10433 10436 10439 10442 10445 10447 10450 10453 10455 10457 10460 10463 10465 10468 10471 10475 10478 10480 10481 10483 10485 10487 10490 10492 10493 10492 10492 10493 10494 10495 10496 10498 10501 10503 10504 10505 10506 10507 10508 10509 10509 10510 10512 10513 10514 10516 10518 10520 10522 10523 10524 10526 10528 10529 10530 10531 10533 10533 10531 10529 10529 10527 10523 10521 10521 10522 10521 10519 10520 10522
10387 10389 10392 10396 10398 10399 10400 10402 10404 10407 10411 10414 10417 10420 10422 10425 10428 10431 10434 10437 10440 10443 10446 10449 10451 10453 10456 10458 10460 10463 10467 10470 10472 10474 10476 10478 10480 10482 10485 10487 10488 10488 10488 10488 10488 10489 10490 10492 10494 10495 10497 10498 10498 10499 10500 10502 10503 10504 10504 10505 10507 10510 10512 10514 10515 10516 10517 10519 10520 10521 10522 10523 10525 10526 10525 10525 10524 10522 10519 10516 10516 10516 10514 10514 10514 10515
10383 10384 10386 10390 10392 10393 10395 10395 10398 10402 10406 10409 10412 10415 10417 10420 10423 10427 10430 10433 10436 10438 10440 10443 10446 10448 10451 10453 10456 10459 10462 10464 10466 10468 10470 10473 10474 10476 10478 10481 10481 10481 10481 10481 10482 10483 10485 10486 10487 10488 10490 10491 10490 10490 10493 10495 10496 10497 10498 10500 10502 10504 10506 10507 10509 10509 10510 10512 10513 10513 10515 10515 10517 10518 10518 10518 10518 10517 10515 10513 10512 10510 10509 10509 10508 10509
10377 10379 10380 10383 10385 10387 10388 10390 10393 10397 10401 10403 10406 10409 10412 10415 10418 10422 10426 10429 10431 10433 10435 10437 10440 10442 10446 10448 10450 10452 10455 10456 10458 10461 10464 10466 10467 10469 10471 10473 10473 10474 10474 10475 10477 10478 10480 10480 10480 10481 10484 10484 10482 10483 10485 10487 10488 10490 10493 10495 10497 10499 10500 10501 10502 10503 10503 10504 10505 10506 10506 10507 10508 10509 10510 10511 10511 10511 10509 10508 10507 10505 10504 10504 10503 10503
10370 10372 10374 10376 10379 10380 10382 10384 10387 10390 10393 10397 10400 10403 10407 10411 10414 10417 10421 10424 10425 10427 10428 10431 10434 10436 10439 10442 10444 10445 10447 10449 10451 10454 10456 10459 10461 10462 10462 10464 10466 10467 10467 10469 10470 10472 10473 10474 10475 10475 10477 10478 10477 10476 10477 10478 10481 10484 10486 10489 10492 10493 10494 10495 10495 10496 10496 10497 10497 10498 10498 10499 10500 10501 10502 10503 10503 10503 10502 10501 10500 10499 10498 10497 10497 10496
10363 10365 10367 10369 10372 10374 10377 10378 10380 10383 10386 10390 10394 10397 10401 10405 10408 10412 10416 10417 10418 10420 10422 10425 10427 10429 10431 10434 10437 10439 10442 10443 10445 10447 10449 10451 10453 10453 10453 10456 10458 10460 10461 10463 10465 10466 10467 10468 10468 10469 10470 10471 10471 10469 10469 10470 10473 10477 10480 10483 10485 10486 10487 10488 10488 10488 10489 10489 10489 10490 10490 10490 10491 10492 10493 10494 10494 10494 10493 10492 10492 10491 10491 10491 10490 10489
10355 10358 10360 10363 10365 10368 10370 10372 10374 10376 10379 10382 10386 10390 10393 10397 10402 10405 10408 10409 10409 10412 10416 10418 10420 10422 10424 10426 10428 10431 10435 10438 10440 10442 10444 10446 10446 10445 10447 10450 10451 10452 10454 10456 10457 10458 10459 10460 10461 10462 10464 10464 10464 10464 10464 10465 10468 10470 10472 10474 10476 10478 10479 10480 10480 10480 10481 10481 10481 10482 10482 10481 10482 10482 10483 10484 10484 10484 10483 10482 10482 10482 10482 10482 10482 10481
10348 10350 10353 10356 10358 10360 10362 10365 10367 10369 10372 10375 10378 10381 10385 10390 10393 10396 10398 10400 10402 10405 10408 10410 10412 10414 10416 10419 10421 10423 10427 10432 10435 10437 10439 10441 10441 10441 10442 10444 10445 10445 10446 10447 10448 10450 10451 10453 10454 10455 10457 10457 10458 10458 10458 10459 10460 10462 10463 10465 10466 10468 10469 10470 10471 10471 10472 10472 10472 10472 10473 10473 10472 10473 10473 10473 10474 10474 10473 10473 10472 10472 10472 10472 10472 10472
10340 10342 10345 10349 10350 10351 10353 10356 10359 10362 10365 10368 10370 10373 10377 10381 10383 10385 10389 10392 10394 10396 10399 10402 10404 10406 10409 10412 10415 10417 10420 10423 10427 10430 10432 10433 10434 10434 10435 10436 10437 10438 10438 10439 10440 10442 10443 10445 10447 10449 10450 10450 10451 10451 10451 10451 10452 10453 10454 10455 10455 10456 10458 10459 10460 10461 10462 10463 10463 10463 10464 10464 10464 10464 10464 10464 10464 10464 10463 10463 10462 10462 10462 10461 10461 10461
10333 10335 10338 10341 10342 10343 10345 10347 10350 10353 10357 10360 10363 10366 10369 10371 10374 10377 10380 10383 10385 10388 10390 10392 10395 10398 10402 10405 10408 10411 10413 10415 10418 10421 10423 10424 10425 10426 10427 10428 10429 10430 10430 10431 10433 10434 10435 10437 10439 10441 10442 10443 10443 10443 10443 10442 10443 10443 10444 10445 10445 10447 10448 10449 10450 10451 10452 10453 10454 10455 10455 10455 10455 10455 10455 10454 10454 10453 10453 10452 10451 10451 10450 10450 10449 10448
10326 10328 10331 10334 10335 10335 10337 10339 10341 10345 10348 10351 10355 10358 10361 10363 10366 10369 10371 10373 10376 10378 10381 10383 10386 10389 10392 10396 10399 10403 10406 10407 10409 10410 10411 10412 10414 10415 10417 10418 10420 10422 10423 10424 10425 10427 10428 10430 10431 10432 10433 10434 10434 10434 10434 10434 10434 10435 10435 10436 10436 10438 10439 10440 10441 10442 10443 10444 10445 10446 10446 10446 10446 10446 10445 10445 10444 10443 10442 10441 10440 10439 10438 10437 10437 10436
10318 10321 10324 10327 10327 10328 10330 10333 10335 10337 10340 10342 10346 10350 10353 10356 10358 10360 10362 10364 10365 10368 10371 10374 10376 10379 10383 10387 10391 10394 10396 10397 10398 10399 10400 10402 10404 10406 10408 10410 10412 10414 10415 10416 10417 10418 10419 10420 10421 10422 10423 10423 10424 10425 10425 10426 10426 10427 10426 10427 10427 10428 10429 10430 10431 10433 10433 10434 10434 10434 10435 10435 10435 10435 10435 10434 10434 10433 10432 10431 10430 10429 10428 10427 10426 10425
10312 10314 10316 10319 10320 10321 10324 10328 10330 10331 10333 10335 10338 10341 10344 10347 10350 10352 10353 10355 10356 10358 10360 10363 10367 10371 10375 10379 10382 10384 10385 10386 10387 10389 10391 10394 10396 10398 10400 10402 10403 10405 10406 10407 10408 10409 10409 10410 10410 10411 10412 10413 10414 10415 10416 10417 10417 10417 10416 10416 10417 10418 10419 10420 10420 10421 10422 10422 10422 10422 10422 10422 10422 10422 10422 10422 10422 10422 10422 10421 10420 10419 10418 10417 10416 10414
10305 10307 10309 10310 10312 10314 10316 10319 10322 10324 10326 10328 10330 10332 10335 10338 10340 10342 10345 10347 10348 10349 10350 10353 10357 10362 10366 10370 10372 10374 10375 10376 10378 10380 10382 10385 10387 10389 10391 10393 10395 10396 10397 10399 10399 10399 10399 10399 10400 10401 10402 10403 10404 10405 10405 10405 10405 10405 10405 10405 10406 10406 10407 10408 10408 10409 10410 10410 10410 10410 10410 10410 10410 10410 10410 10410 10410 10410 10410 10410 10409 10408 10407 10406 10404 10403
10299 10300 10302 10303 10305 10306 10308 10310 10313 10315 10318 10319 10321 10323 10326 10328 10330 10333 10336 10338 10340 10341 10342 10344 10347 10352 10355 10358 10361 10363 10366 10368 10370 10372 10374 10376 10378 10380 10381 10383 10385 10387 10388 10389 10389 10389 10389 10389 10390 10391 10392 10393 10394 10394 10394 10394 10394 10394 10395 10395 10394 10394 10395 10395 10396 10397 10398 10398 10399 10399 10399 10399 10399 10399 10398 10398 10398 10398 10398 10398 10397 10396 10395 10394 10392 10390
10291 10293 10294 10296 10297 10299 10301 10302 10304 10306 10308 10309 10312 10314 10316 10319 10321 10324 10327 10329 10331 10333 10334 10335 10337 10341 10344 10347 10350 10353 10355 10358 10360 10362 10364 10366 10368 10369 10371 10373 10374 10375 10377 10377 10377 10378 10378 10379 10380 10381 10382 10383 10383 10383 10383 10384 10384 10384 10384 10384 10384 10384 10384 10384 10384 10384 10385 10386 10386 10387 10387 10387 10387 10387 10386 10386 10386 10385 10385 10385 10384 10383 10382 10381 10379 10378
10283 10284 10286 10288 10290 10292 10294 10295 10297 10298 10299 10301 10303 10305 10307 10309 10312 10314 10316 10319 10321 10323 10325 10326 10328 10330 10333 10336 10339 10342 10345 10347 10349 10351 10353 10354 10356 10358 10360 10361 10362 10364 10366 10366 10367 10367 10368 10369 10369 10370 10370 10370 10371 10371 10371 10372 10372 10373 10373 10373 10373 10373 10373 10373 10372 10372 10373 10373 10373 10374 10374 10374 10375 10374 10374 10373 10372 10371 10371 10370 10369 10369 10368 10367 10366 10364